"Time","Temp","Dewpoint","Humidity","Pressure","Direction","Speed","Gust","Precip","PrecipRate"
"00:04:57","72.3","65.1","78","29.95","169","0.4","2.3","0.00","0.00"
"00:09:57","72.3","65.1","78","29.95","169","0.5","2.3","0.00","0.00"
"00:14:55","72.2","65","78.1","29.95","169","0.3","2.3","0.00","0.00"
"00:19:57","72.2","65.3","79","29.94","169","0.4","2.3","0.00","0.00"
"00:24:58","72.1","65.2","79","29.94","169","0.2","1.2","0.00","0.00"
"00:29:56","72.1","65.2","79","29.94","169","0","0","0.00","0.00"
"00:34:59","72","65.1","79","29.94","169","0","0","0.00","0.00"
"00:39:59","72","65.4","79.7","29.94","156","1.7","4","0.00","0.00"
"00:44:56","72","65.5","80","29.94","153","1.4","3.5","0.00","0.00"
"00:49:57","72","65.5","80","29.93","155","0.9","3.5","0.00","0.00"
"00:54:58","71.9","65.5","80.1","29.93","155","1.2","3.5","0.00","0.00"
"00:59:59","71.8","65.7","81","29.93","157","0.9","3.5","0.00","0.00"
"01:04:59","71.7","65.6","81","29.92","161","1","3.5","0.00","0.00"
"01:09:56","71.6","65.8","81.9","29.92","163","0.8","3.5","0.00","0.00"
"01:14:57","71.5","65.8","82.2","29.92","164","1","3.5","0.00","0.00"
"01:19:58","71.5","66.1","83","29.91","164","1.5","3.5","0.00","0.00"
"01:24:58","71.3","65.9","83","29.91","166","0.4","2.3","0.00","0.00"
"01:29:56","71.2","66","83.8","29.91","166","1","3","0.00","0.00"
"01:34:57","71","66.1","84.5","29.91","165","1","3.5","0.00","0.00"
"01:39:57","70.9","66.2","85","29.91","165","0.6","3","0.00","0.00"
"01:44:58","70.7","66.2","85.4","29.91","165","0.7","2.3","0.00","0.00"
"01:49:59","70.6","66.2","86","29.91","165","0.5","3","0.00","0.00"
"01:54:56","70.5","66.2","86.4","29.91","165","0.6","3.5","0.00","0.00"
"01:59:56","70.4","66.3","87","29.91","165","0.5","3.5","0.00","0.00"
"02:04:58","70.3","66.4","87.5","29.91","165","0.5","2.3","0.00","0.00"
"02:09:56","70.2","66.5","88","29.91","165","0.1","2.3","0.00","0.00"
"02:14:55","70.2","66.5","88","29.91","165","0","0","0.00","0.00"
"02:19:57","70.1","66.4","88","29.90","165","0","0","0.00","0.00"
"02:24:58","70","66.5","88.7","29.90","165","0","0","0.00","0.00"
"02:29:58","69.9","66.5","89","29.90","165","0.1","3","0.00","0.00"
"02:34:59","69.8","66.4","89","29.90","165","0.8","3.5","0.00","0.00"
"02:39:59","69.7","66.6","90","29.90","165","0.9","2.3","0.00","0.00"
"02:44:56","69.7","66.6","90","29.90","165","0.6","2.3","0.00","0.00"
"02:49:58","69.7","66.6","90","29.90","164","0.4","2.3","0.00","0.00"
"02:54:58","69.6","66.8","90.8","29.90","164","1.2","3.5","0.00","0.00"
"02:59:59","69.6","66.9","91","29.90","164","0.8","3","0.00","0.00"
"03:04:56","69.5","66.8","91","29.89","164","1","3.5","0.00","0.00"
"03:09:58","69.4","66.8","91","29.89","165","0.9","2.3","0.00","0.00"
"03:14:58","69.3","66.8","91.7","29.89","165","1.1","3","0.00","0.00"
"03:19:59","69.3","66.9","92","29.89","165","0.4","3.5","0.00","0.00"
"03:24:56","69.2","66.8","92","29.89","164","0.6","3.5","0.00","0.00"
"03:29:57","69.2","66.8","92","29.89","164","0.8","3.5","0.00","0.00"
"03:34:56","69.1","66.7","92","29.89","164","0.3","2.3","0.00","0.00"
"03:39:59","69.1","66.7","92","29.89","164","0.3","2.3","0.00","0.00"
"03:44:58","69.1","66.7","92","29.90","164","0.1","1.2","0.00","0.00"
"03:49:59","69","66.6","92","29.90","164","0","0","0.00","0.00"
"03:54:56","69","66.9","93","29.90","164","0","0","0.00","0.00"
"03:59:57","69","66.9","93","29.90","164","0","0","0.00","0.00"
"04:04:57","69","66.9","93","29.90","164","0","0","0.00","0.00"
"04:09:59","69","66.9","93","29.90","164","0","0","0.00","0.00"
"04:14:59","69","66.9","93","29.90","164","0","0","0.00","0.00"
"04:19:56","69","66.9","93","29.90","164","0","0","0.00","0.00"
"04:24:58","69","66.9","93","29.90","164","0","0","0.00","0.00"
"04:29:59","69","66.9","93","29.90","164","0","0","0.00","0.00"
"04:34:57","69","66.9","93","29.90","164","0","0","0.00","0.00"
"04:39:57","69","66.9","93","29.90","164","0","0","0.00","0.00"
"04:44:58","68.9","66.8","93","29.90","164","0","0","0.00","0.00"
"04:49:59","68.9","66.9","93.5","29.90","164","0","0","0.00","0.00"
"04:54:56","68.9","67.1","94","29.90","164","0","0","0.00","0.00"
"04:59:57","68.9","67.1","94","29.90","164","0","0","0.00","0.00"
"05:04:59","68.9","67.1","94","29.89","164","0","0","0.00","0.00"
"05:09:57","68.9","67.1","94","29.89","164","0","0","0.00","0.00"
"05:14:57","68.8","67","94","29.89","164","0","0","0.00","0.00"
"05:19:57","68.8","67","94","29.89","164","0","0","0.00","0.00"
"05:24:59","68.9","67.1","94","29.89","164","0","0","0.00","0.00"
"05:29:59","68.9","67.1","94","29.89","164","0","0","0.00","0.00"
"05:34:56","68.9","67.1","94","29.89","164","0","0","0.00","0.00"
"05:39:57","68.9","67.1","94","29.89","164","0","0","0.00","0.00"
"05:44:59","69","67.2","94","29.89","164","0","0","0.00","0.00"
"05:49:57","69","67.2","94","29.89","164","0","0","0.00","0.00"
"05:54:59","69.1","67.3","94","29.89","164","0","0","0.00","0.00"
"05:59:56","69.1","67.3","94","29.89","164","0","0","0.00","0.00"
"06:04:58","69.1","67.3","94","29.89","164","0","0","0.00","0.00"
"06:09:57","69.1","67.3","94","29.89","164","0","0","0.00","0.00"
"06:14:58","69.1","67.3","94","29.89","164","0","0","0.00","0.00"
"06:19:56","69.1","67.3","94","29.89","164","0","0","0.00","0.00"
"06:24:58","69.2","67.4","94","29.89","164","0","0","0.00","0.00"
"06:29:56","69.2","67.4","94","29.89","164","0","0","0.00","0.00"
"06:34:59","69.3","67.5","94","29.89","164","0","0","0.00","0.00"
"06:39:56","69.3","67.5","94","29.89","164","0","0","0.00","0.00"
"06:44:57","69.3","67.5","94","29.89","164","0","0","0.00","0.00"
"06:49:59","69.4","67.6","94","29.89","164","0","0","0.00","0.00"
"06:54:56","69.4","67.6","94","29.89","164","0","0","0.00","0.00"
"06:59:56","69.5","67.7","94","29.89","164","0.3","1.2","0.00","0.00"
"07:04:58","69.5","67.4","93.1","29.89","164","0","0","0.00","0.00"
"07:09:56","69.5","67.4","93","29.89","164","0","0","0.00","0.00"
"07:14:57","69.6","67.3","92.3","29.89","154","0.5","3.5","0.00","0.00"
"07:19:57","69.7","67","91.2","29.88","147","0.6","3.5","0.00","0.00"
"07:24:58","69.8","67.1","91","29.88","147","0.1","1.2","0.00","0.00"
"07:29:59","69.9","67.3","91.2","29.88","147","0","2","0.00","0.00"
"07:34:59","70.1","67.3","91","29.88","147","0.6","2.3","0.00","0.00"
"07:39:59","70.2","67.3","90.8","29.88","147","1.2","3.5","0.00","0.00"
"07:44:56","70.3","67.4","90.7","29.89","151","1.3","3.5","0.00","0.00"
"07:49:57","70.4","67.5","90.6","29.89","146","1","3.5","0.00","0.00"
"07:54:58","70.4","67.5","90.7","29.89","146","1","3.5","0.00","0.00"
"07:59:59","70.5","67.7","91","29.89","163","1.8","4","0.00","0.00"
"08:04:56","70.6","67.8","91","29.89","141","1.4","3.5","0.00","0.00"
"08:09:57","70.6","67.9","91.3","29.89","151","2","5","0.00","0.00"
"08:14:57","70.6","68.1","91.9","29.89","145","1.4","3.5","0.00","0.00"
"08:19:57","70.6","68.2","92","29.89","141","1.2","3.5","0.00","0.00"
"08:24:58","70.6","68.2","92","29.89","138","0.6","3.5","0.00","0.00"
"08:29:59","70.6","68.2","92","29.89","138","0.4","2.3","0.00","0.00"
"08:34:56","70.7","68.5","92.8","29.88","138","0.1","1.2","0.00","0.00"
"08:39:55","70.8","68.6","92.5","29.88","138","0.1","1.2","0.00","0.00"
"08:44:56","70.9","68.7","92.7","29.88","138","0.5","2.3","0.00","0.00"
"08:49:57","71.1","68.7","92","29.88","138","0.5","3","0.00","0.00"
"08:54:57","71.2","68.9","92.2","29.88","138","0.8","3.5","0.00","0.00"
"08:59:57","71.5","69.1","92","29.88","138","0.9","3","0.00","0.00"
"09:04:57","71.7","69.3","92","29.88","147","1.9","4","0.00","0.00"
"09:09:59","71.9","69.1","91.1","29.88","166","2.1","4","0.00","0.00"
"09:14:55","72","69.2","91","29.88","167","0.6","2.3","0.00","0.00"
"09:19:56","72.2","69.3","90.9","29.88","166","0.7","3","0.00","0.00"
"09:24:56","72.2","69.1","90","29.88","171","2.2","4","0.00","0.00"
"09:29:52","72.2","69.1","90","29.88","165","1.4","4","0.00","0.00"
"09:34:57","72.2","69.1","90","29.88","160","1.5","3.5","0.00","0.00"
"09:39:56","72.1","69","90.1","29.88","160","0.9","3.5","0.00","0.00"
"09:44:57","72","69.1","90.5","29.88","160","1","2.3","0.00","0.00"
"09:49:57","72.1","69.1","90.3","29.88","144","1.4","4","0.00","0.00"
"09:54:57","72","68.9","90","29.88","153","2","4","0.00","0.00"
"09:59:57","72","69","90.5","29.88","176","1.6","4","0.00","0.00"
"10:04:58","72","68.9","90","29.88","189","1.9","4","0.00","0.00"
"10:09:56","72","68.9","90","29.88","200","2.1","4","0.00","0.00"
"10:14:59","72","68.9","90","29.89","185","2.6","7","0.00","0.00"
"10:19:56","71.9","68.8","90","29.89","165","2.1","6.9","0.00","0.00"
"10:24:56","71.8","68.7","90.1","29.89","169","1.5","4","0.00","0.00"
"10:29:57","71.8","69.1","91.3","29.89","170","1","2.3","0.00","0.00"
"10:34:58","71.8","69.3","91.9","29.89","171","0.7","2.3","0.00","0.00"
"10:39:58","71.8","69.3","92","29.89","171","0.2","2.3","0.00","0.00"
"10:44:58","71.8","69.4","92.2","29.89","171","0.5","2.3","0.00","0.00"
"10:49:58","71.9","69.4","92","29.89","170","0.6","2.3","0.00","0.00"
"10:54:59","71.9","69.4","92","29.89","170","0.9","3.5","0.00","0.00"
"10:59:59","72","69.5","92.2","29.89","166","1.4","3.5","0.01","0.01"
"11:04:59","72.1","70","93.2","29.89","161","1.2","3.5","0.01","0.01"
"11:09:56","72.1","70.1","93.2","29.89","162","1.5","3.5","0.02","0.02"
"11:14:59","72.3","70.4","93.9","29.89","163","1","3.5","0.02","0.02"
"11:19:56","72.4","70.5","93.4","29.89","163","1.1","3.5","0.02","0.02"
"11:24:57","72.6","70.5","93.2","29.89","161","0.9","3.5","0.02","0.02"
"11:29:58","72.7","70.8","93.5","29.89","161","0.5","2.3","0.02","0.02"
"11:34:58","72.7","70.3","92.1","29.89","221","1.7","3.5","0.02","0.02"
"11:39:58","72.6","70","91.6","29.89","227","1.3","3.5","0.02","0.02"
"11:44:59","72.6","70","91.7","29.89","222","1.2","4","0.02","0.02"
"11:49:59","72.6","70","91.5","29.89","196","1.5","4","0.02","0.02"
"11:54:59","72.6","70","91.8","29.89","212","1.7","3.5","0.02","0.02"
"11:59:56","72.6","70.1","92","29.89","210","1.2","3.5","0.02","0.02"
"12:04:56","72.5","70","92","29.89","205","1.2","3.5","0.02","0.01"
"12:09:58","72.5","70.2","92.5","29.89","205","0.8","2.3","0.02","0.01"
"12:14:57","72.5","70.3","92.8","29.89","205","0.8","2.3","0.05","0.03"
"12:19:57","72.4","70.3","93","29.89","207","0.6","3.5","0.06","0.04"
"12:24:58","72.2","70.2","93.3","29.89","209","0.6","2.3","0.07","0.05"
"12:29:58","72","70","93.2","29.89","209","0.3","2.3","0.08","0.06"
"12:34:59","72","70.2","94.1","29.89","209","0","0","0.09","0.07"
"12:39:59","72","70.3","94.4","29.89","226","0.7","3","0.11","0.08"
"12:44:56","71.8","70.1","94","29.89","239","0.5","3","0.12","0.10"
"12:49:57","71.7","69.9","94","29.89","264","0.6","3.5","0.12","0.10"
"12:54:58","71.7","70.2","95","29.89","264","0.9","3","0.12","0.10"
"12:59:59","72","70.6","95.6","29.89","264","0.4","3","0.12","0.10"
"13:04:56","72.2","70.9","95.5","29.88","278","1.4","4","0.12","0.10"
"13:09:58","72.2","70.5","94.4","29.88","288","1.6","4","0.12","0.10"
"13:14:59","72.2","70.6","94.7","29.88","313","1.4","7","0.12","0.10"
"13:19:59","72.2","70.2","93.4","29.88","340","2.2","5.8","0.12","0.07"
"13:24:56","72.4","70.2","92.9","29.88","331","2.7","5","0.12","0.06"
"13:29:56","72.6","70","91.6","29.88","332","2","4","0.12","0.05"
"13:34:58","73.1","70.6","92","29.88","294","1","3.5","0.12","0.04"
"13:39:59","73.7","70.9","90.9","29.88","263","1.3","5","0.12","0.03"
"13:44:59","74.3","70.6","88.2","29.88","337","1.6","5","0.12","0.01"
"13:49:56","74.7","71.2","88.9","29.88","269","1.3","3.5","0.13","0.00"
"13:54:57","75.2","71.6","88.8","29.88","116","1","4","0.13","0.01"
"13:59:57","75.4","71","86.2","29.88","64","2.3","5","0.13","0.01"
"14:04:58","75.7","71.3","86.3","29.86","293","2.1","6","0.13","0.01"
"14:09:59","76","71.1","84.9","29.86","355","2.8","6","0.13","0.01"
"14:14:59","76.3","70.9","83.5","29.86","330","2.3","7","0.13","0.01"
"14:19:56","76.6","71.2","83.2","29.85","342","2","6.9","0.13","0.01"
"14:24:57","77.1","70.6","80.5","29.85","290","2.4","5","0.13","0.01"
"14:29:57","77.3","71.2","81.5","29.85","288","1.6","5","0.13","0.01"
"14:34:58","77.6","70.4","78.6","29.85","344","2.2","6","0.13","0.01"
"14:39:58","77.6","70.4","78.5","29.85","314","2.4","6","0.13","0.01"
"14:44:56","77.4","70.3","78.7","29.85","341","2.3","5","0.13","0.01"
"14:49:56","77.3","70","78.2","29.85","331","1.8","5","0.13","0.01"
"14:54:57","77.2","70","78.5","29.85","306","1.4","4","0.13","0.00"
"14:59:58","76.7","70.3","80.7","29.85","142","2.8","5","0.13","0.00"
"15:04:59","76","69.9","81.7","29.85","140","2.5","4","0.13","0.00"
"15:09:56","75.5","70","83.1","29.85","154","1.7","4","0.13","0.00"
"15:14:56","75.3","70.2","84.1","29.85","114","3.2","7","0.13","0.00"
"15:19:56","75.6","70.8","85","29.85","127","2.3","6","0.13","0.00"
"15:24:57","75.9","70.7","84","29.85","122","2.1","6","0.13","0.00"
"15:29:57","76","70.7","83.5","29.85","167","2.2","5","0.13","0.00"
"15:34:58","76","70.6","83.1","29.85","135","2","4","0.13","0.00"
"15:39:59","75.9","70.5","83.2","29.85","125","2","4","0.13","0.00"
"15:44:56","75.8","70.3","82.9","29.85","123","1","4","0.13","0.00"
"15:49:56","75.9","70.2","82.5","29.85","124","1.1","3.5","0.13","0.00"
"15:54:57","76","70.4","82.6","29.85","123","1","3.5","0.13","0.00"
"15:59:58","76.2","70.6","82.8","29.85","123","1.3","3.5","0.13","0.00"
"16:04:59","76.3","70.7","82.8","29.83","125","1.1","4","0.13","0.00"
"16:09:56","76.6","70.8","82.2","29.83","128","1","3.5","0.13","0.00"
"16:14:56","76.8","70.4","80.7","29.83","127","2.1","4","0.13","0.00"
"16:19:57","76.9","70.5","80.7","29.83","127","0.9","3.5","0.13","0.00"
"16:24:52","77.4","71.2","81.1","29.83","130","1.4","3.5","0.13","0.00"
"16:29:57","78.1","71","78.9","29.83","137","1.5","4","0.13","0.00"
"16:34:57","78.2","71","78.6","29.83","122","1.4","4","0.13","0.00"
"16:39:57","78.4","70.9","77.6","29.83","127","1.7","5","0.13","0.00"
"16:44:58","78.6","71.3","78.5","29.83","129","1.6","5","0.13","0.00"
"16:49:57","78.9","71.6","78.5","29.82","158","1.6","4","0.13","0.00"
"16:54:57","79.4","71.1","75.9","29.82","168","1.3","3.5","0.13","0.00"
"16:59:56","79.8","71.7","76.3","29.82","168","2","4","0.13","0.00"
"17:04:57","80.2","71.3","74.2","29.82","154","1.6","4","0.13","0.00"
"17:09:59","79.8","71.1","74.6","29.82","114","1.5","4","0.13","0.00"
"17:14:57","79.7","71.5","76.1","29.82","118","1.7","3.5","0.13","0.00"
"17:19:57","80.1","71.4","74.9","29.81","137","0.5","2.3","0.13","0.00"
"17:24:57","80.6","71.8","74.6","29.81","155","1","3.5","0.13","0.00"
"17:29:57","80.9","71.2","72.6","29.81","163","0.4","2.3","0.13","0.00"
"17:34:57","80.9","71.3","72.9","29.81","152","0.3","4","0.13","0.00"
"17:39:56","80.8","71.3","72.8","29.81","142","1.7","3.5","0.13","0.00"
"17:44:56","80.9","71.6","73.3","29.81","128","1.8","5","0.13","0.00"
"17:49:55","80.9","71.3","72.8","29.81","124","0.7","3.5","0.13","0.00"
"17:54:56","80.9","71.1","72.3","29.81","124","1","3.5","0.13","0.00"
"17:59:59","81.1","71.2","72","29.81","125","0.5","2.3","0.13","0.00"
"18:04:56","81.4","71.3","71.4","29.80","125","0.2","1.2","0.13","0.00"
"18:09:59","81.8","71.4","70.9","29.80","126","0.8","3.5","0.13","0.00"
"18:14:57","82","71.8","71.3","29.80","127","0.3","2.3","0.13","0.00"
"18:19:57","82.1","71.5","70.3","29.80","135","1.5","3.5","0.13","0.00"
"18:24:57","81.9","71.1","69.7","29.80","122","1.3","3.5","0.13","0.00"
"18:29:56","81.7","71.2","70.5","29.81","177","1.5","4","0.13","0.00"
"18:34:56","81.6","70.9","70","29.81","188","0.9","3.5","0.13","0.00"
"18:39:56","81.3","70.2","69.2","29.81","186","0.4","2","0.13","0.00"
"18:44:56","81","70.2","69.9","29.81","181","0.3","2.3","0.13","0.00"
"18:49:56","80.8","70.5","71.2","29.81","176","0.8","3.5","0.13","0.00"
"18:54:56","80.6","70.4","71.4","29.81","176","0.5","2.3","0.13","0.00"
"18:59:56","80.5","70.2","71.2","29.81","176","0.3","2.3","0.13","0.00"
"19:04:57","80.3","70.2","71.5","29.81","176","0.1","2","0.13","0.00"
"19:09:59","80.2","70","71.2","29.81","176","0.4","2.3","0.13","0.00"
"19:14:58","80","69.7","71","29.81","176","0.4","2.3","0.13","0.00"
"19:19:58","79.8","70.4","73","29.81","176","0.2","2","0.13","0.00"
"19:24:57","79.5","70.8","74.9","29.81","176","0.6","2.3","0.13","0.00"
"19:29:56","79","70.6","75.5","29.82","176","0.6","2.3","0.13","0.00"
"19:34:57","78.4","70.3","76.3","29.82","176","0","1.2","0.13","0.00"
"19:39:57","78","70.1","76.7","29.82","176","0.2","2.3","0.13","0.00"
"19:44:57","77.6","70","77.6","29.82","176","0.1","1.2","0.13","0.00"
"19:49:57","77","70","79","29.82","176","0","1.2","0.13","0.00"
"19:54:59","76.4","70","80.6","29.82","176","0","1.2","0.13","0.00"
"19:59:56","75.9","69.7","81.2","29.83","176","0.4","2.3","0.13","0.00"
"20:04:57","75.6","69.7","82","29.83","173","0.9","3.5","0.13","0.00"
"20:09:59","75.5","69.7","82.3","29.83","171","0.4","3.5","0.13","0.00"
"20:14:59","75.5","69.7","82.3","29.83","171","0","0","0.13","0.00"
"20:19:56","75.5","69.8","82.5","29.83","171","0","0","0.13","0.00"
"20:24:58","75.5","70","83.1","29.83","171","0.2","3","0.13","0.00"
"20:29:58","75.4","70.5","84.8","29.85","270","3.5","10.4","0.13","0.00"
"20:34:59","74.7","68.3","80.5","29.85","333","4.9","16","0.23","0.05"
"20:39:59","72.8","66.3","79.9","29.85","294","1.7","5.8","0.30","0.17"
"20:44:56","71","65.8","83.6","29.86","343","3.3","6","0.33","0.19"
"20:49:57","69.7","65.3","86.1","29.86","316","1.9","6","0.38","0.22"
"20:54:58","68.8","65","87.8","29.86","202","1.5","4","0.46","0.33"
"20:59:58","68.2","65.2","89.9","29.86","336","1","3.5","0.47","0.34"
"21:04:59","68","65.4","91.6","29.86","336","0.7","3.5","0.47","0.34"
"21:09:57","67.8","65.6","92.6","29.86","336","0.7","3.5","0.47","0.34"
"21:14:58","67.7","65.6","93","29.87","336","0.4","3","0.47","0.34"
"21:19:59","67.5","65.4","93","29.87","336","0","0","0.47","0.34"
"21:24:56","67.3","65.2","93","29.87","336","0","0","0.47","0.34"
"21:29:57","67.1","65","93","29.88","336","0.3","2.3","0.47","0.34"
"21:34:57","66.9","65","93.8","29.88","336","0.4","2.3","0.47","0.34"
"21:39:58","66.8","65.2","94.8","29.88","336","0.6","2.3","0.47","0.24"
"21:44:58","66.8","65.3","95","29.89","336","0.1","1.2","0.47","0.17"
"21:49:59","66.8","65.3","95","29.89","336","0","0","0.47","0.14"
"21:54:59","66.8","65.3","95","29.89","336","0.2","1.2","0.47","0.09"
"21:59:56","66.7","65.2","95","29.90","336","0.3","1.2","0.47","0.01"
"22:04:57","66.6","65.1","95","29.90","336","0.1","1.2","0.47","0.00"
"22:09:59","66.6","65.1","95","29.90","336","0.1","1.2","0.47","0.00"
"22:14:59","66.6","65.4","96","29.90","336","0.1","1.2","0.47","0.00"
"22:19:56","66.6","65.4","96","29.90","336","0.2","2","0.47","0.00"
"22:24:57","66.7","65.5","96","29.90","336","0.1","1.2","0.47","0.00"
"22:29:59","66.7","65.5","96","29.90","336","0","0","0.47","0.00"
"22:34:56","66.6","65.4","96","29.90","336","0","0","0.47","0.00"
"22:39:56","66.6","65.2","95.6","29.90","336","0.1","2","0.47","0.00"
"22:44:57","66.3","65","95.6","29.91","336","0.5","2.3","0.47","0.00"
"22:49:58","66.1","64.9","96","29.91","336","0","1.2","0.47","0.00"
"22:54:55","66","64.8","96","29.91","336","0","0","0.47","0.00"
"22:59:57","65.9","64.7","96","29.91","336","0","0","0.47","0.00"
"23:04:58","65.7","64.3","95.5","29.91","336","0","0","0.47","0.00"
"23:09:56","65.5","64","95.2","29.91","336","0","0","0.47","0.00"
"23:14:57","65.4","64.1","95.9","29.92","336","0","0","0.47","0.00"
"23:19:59","65.2","64","96","29.92","336","0","0","0.47","0.00"
"23:24:57","65.1","63.9","96","29.92","336","0","0","0.47","0.00"
"23:29:58","64.9","63.6","95.4","29.93","336","0","0","0.47","0.00"
"23:34:56","64.6","63.1","95","29.93","336","0","0","0.47","0.00"
"23:39:59","64.4","62.9","95.2","29.93","336","0","0","0.47","0.00"
"23:44:57","64.2","62.9","95.7","29.93","336","0","0","0.47","0.00"
"23:49:58","64","62.8","95.9","29.93","336","0","0","0.47","0.00"
"23:54:56","64","62.8","96","29.93","336","0","0","0.47","0.00"
"23:59:57","63.8","62.6","96","29.93","336","0","0","0.47","0.00"
